Olympia, WA

11:44 PM PDT on May 26, 2017 (GMT -0700)
Olympia

Weather History for KOLM - August, 2013

Change the Weather History Date:

Thursday, August 8, 2013

  Actual Average Record
Temperature  
Mean Temperature 68 °F 65 °F  
Max Temperature 82 °F 79 °F 100 °F (1960)
Min Temperature 54 °F 51 °F 41 °F (1970)
Degree Days  
Heating Degree Days 0 2  
Month to date heating degree days 8 16  
Since 1 June heating degree days 201 284  
Since 1 July heating degree days 65 96  
Cooling Degree Days 3 2  
Month to date cooling degree days 17 16  
Year to date cooling degree days 81 73  
Since 1 June cooling degree days 79 70  
Growing Degree Days 20 (Base 50)    
Moisture  
Dew Point 56 °F    
Average Humidity 69    
Maximum Humidity 93    
Minimum Humidity 45    
Precipitation  
Precipitation 0.00 in 0.02 in 0.34 in (1994)
Month to date precipitation 0.01 0.13  
Year to date precipitation 21.43 26.79  
Sea Level Pressure  
Sea Level Pressure 30.01 in    
Wind  
Wind Speed 4 mph (WSW)    
Max Wind Speed 12 mph    
Max Gust Speed 15 mph    
Visibility 10 miles    
Events      
T = Trace of Precipitation, MM = Missing Value Source: NWS Daily Summary

Daily Weather History Graph

Daily Weather History Graph

Search for Another Location

Airport or City:

Trip Planner

Search our weather history database for the weather conditions in past years. The results will help you decide how hot, cold, wet, or windy it might be!

Date:

Astronomy

Aug. 08, 2013 Rise Set
Actual Time 6:00 AM PDT 8:33 PM PDT
Civil Twilight 5:25 AM PDT 9:07 PM PDT
Nautical Twilight 4:42 AM PDT 9:50 PM PDT
Astronomical Twilight 3:52 AM PDT 10:39 PM PDT
Moon 8:04 AM PDT (8/8) 9:00 PM PDT (8/8)
Length of Visible Light 15h 41m
Length of Day
14h 32m
Waxing Crescent, 3% of the Moon is Illuminated
Aug 8
Waxing Crescent
Aug 14
First Quarter
Aug 20
Full
Aug 28
Last Quarter
Sep 5
New

Hourly Weather History & Observations

Time (PDT) Temp. Heat Index Dew Point Humidity Pressure Visibility Wind Dir Wind Speed Gust Speed Precip Events Conditions
12:54 AM 57.0 °F - 54.0 °F 89% 30.04 in 10.0 mi South 5.8 mph - N/A   Clear
1:54 AM 57.9 °F - 55.0 °F 90% 30.04 in 10.0 mi SSW 6.9 mph - N/A   Clear
2:54 AM 57.0 °F - 55.0 °F 93% 30.03 in 10.0 mi Calm Calm - N/A   Clear
3:31 AM 55.9 °F - 55.0 °F 97% 30.03 in 10.0 mi Calm Calm - N/A   Mostly Cloudy
3:54 AM 55.9 °F - 54.0 °F 93% 30.03 in 10.0 mi Calm Calm - N/A   Mostly Cloudy
4:24 AM 54.0 °F - 53.1 °F 97% 30.03 in 10.0 mi Calm Calm - N/A   Scattered Clouds
4:41 AM 55.0 °F - 53.1 °F 93% 30.03 in 10.0 mi Calm Calm - N/A   Mostly Cloudy
4:54 AM 57.0 °F - 55.0 °F 93% 30.04 in 10.0 mi Calm Calm - N/A   Overcast
5:54 AM 57.9 °F - 55.0 °F 90% 30.04 in 10.0 mi West 3.5 mph - N/A   Overcast
6:54 AM 59.0 °F - 55.0 °F 87% 30.05 in 10.0 mi SSW 3.5 mph - N/A   Overcast
7:54 AM 57.9 °F - 55.0 °F 90% 30.05 in 10.0 mi Calm Calm - N/A   Overcast
8:54 AM 59.0 °F - 55.0 °F 87% 30.05 in 10.0 mi Variable 4.6 mph - N/A   Overcast
9:50 AM 60.8 °F - 55.4 °F 82% 30.05 in 10.0 mi WSW 4.6 mph - N/A   Overcast
9:54 AM 61.0 °F - 55.9 °F 83% 30.06 in 10.0 mi Variable 4.6 mph - N/A   Overcast
10:43 AM 64.0 °F - 55.9 °F 75% 30.05 in 10.0 mi Variable 4.6 mph - N/A   Scattered Clouds
10:54 AM 64.9 °F - 55.9 °F 73% 30.05 in 10.0 mi WSW 4.6 mph - N/A   Partly Cloudy
11:54 AM 70.0 °F - 57.0 °F 63% 30.04 in 10.0 mi Variable 4.6 mph - N/A   Scattered Clouds
12:54 PM 73.0 °F - 57.0 °F 57% 30.02 in 10.0 mi NW 4.6 mph - N/A   Partly Cloudy
1:54 PM 75.0 °F - 55.9 °F 51% 30.01 in 10.0 mi Variable 3.5 mph - N/A   Partly Cloudy
2:54 PM 78.1 °F - 57.9 °F 50% 29.99 in 10.0 mi WSW 5.8 mph - N/A   Partly Cloudy
3:54 PM 81.0 °F 81.1 °F 57.9 °F 45% 29.98 in 10.0 mi Calm Calm - N/A   Clear
4:54 PM 82.0 °F 82.4 °F 60.1 °F 47% 29.97 in 10.0 mi Variable 6.9 mph - N/A   Clear
5:54 PM 80.1 °F 80.7 °F 59.0 °F 48% 29.96 in 10.0 mi NNE 9.2 mph - N/A   Clear
6:54 PM 79.0 °F - 57.0 °F 47% 29.95 in 10.0 mi North 6.9 mph - N/A   Clear
7:54 PM 75.9 °F - 57.0 °F 52% 29.95 in 10.0 mi North 6.9 mph - N/A   Clear
8:54 PM 71.1 °F - 57.0 °F 61% 29.95 in 10.0 mi NNW 3.5 mph - N/A   Clear
9:54 PM 66.0 °F - 57.9 °F 75% 29.96 in 10.0 mi SSE 3.5 mph - N/A   Clear
10:54 PM 62.1 °F - 55.9 °F 80% 29.96 in 10.0 mi SSE 5.8 mph - N/A   Clear
11:54 PM 60.1 °F - 54.0 °F 80% 29.97 in 10.0 mi SSE 3.5 mph - N/A   Clear